[[{"header":{"parameterUnit":"m.s-1","parameterCategory":1,"la1":30.2991,"la2":30.254,"lo1":-89.0895,"lo2":-89.0444,"dy":0.0017,"dx":0.0017,"nx":28,"ny":28,"refTime":"2025-06-02T03:00:00:Z","depth":0,"parameterNumber":2,"parameterNumberName":"U-component_of_WINDS"},"data":[0,0,0,0,0,0,0,0,0,0,0,0,0,0,0,0,0,0,0,0,0,0,0,0,0,0,0,0,0,0,0,0,0,0,0,0,0,0,0,0,0,0,0,0,0,0,0,0,0,0,0,0,0,0,0,0,0,0,-0.0142,-0.0142,0,-0.0173,-0.0173,-0.0174,-0.0178,-0.0178,-0.0177,-0.0177,-0.0211,-0.0212,-0.0213,0,0,0,0,0,0,0,0,0,0,0,0,0,-0.0088,-0.0089,-0.0142,-0.0142,-0.0142,-0.0173,-0.0173,-0.0174,-0.0178,-0.0178,-0.0177,-0.0177,-0.0211,-0.0212,-0.0214,0,0,0,0,0,0,0,0,0,0,0,0,0,-0.0115,-0.0089,-0.0141,-0.0148,-0.0149,-0.0173,-0.0174,-0.0174,-0.0178,-0.0177,-0.0177,-0.0177,-0.021,-0.0212,-0.0214,-0.0234,0,0,-0.0219,-0.022,0,0,0,0,0,0,0,0,-0.0113,-0.0117,-0.0147,-0.0148,-0.0149,-0.0171,-0.0167,-0.0194,-0.0178,-0.0167,-0.0177,-0.0176,-0.0198,-0.0201,-0.0208,-0.0236,-0.0237,-0.0219,-0.0221,-0.0221,-0.0222,0,0,0,0,0,0,0,-0.0111,-0.0115,-0.0154,-0.0147,-0.0148,-0.015,-0.0154,-0.0172,-0.0185,-0.0168,-0.0168,-0.0172,-0.0199,-0.0206,-0.0209,-0.0238,-0.0219,-0.0221,-0.0222,-0.0223,-0.0287,-0.0288,0,0,0,0,0,0,-0.0108,-0.0114,-0.0153,-0.0155,-0.0129,-0.0152,-0.0155,-0.0164,-0.0185,-0.0187,-0.0172,-0.0172,-0.0203,-0.0207,-0.021,-0.0237,-0.0221,-0.0223,-0.0224,-0.0286,-0.0287,-0.0288,0,0,0,0,0,0,-0.0107,-0.0111,-0.0152,-0.0135,-0.014,-0.0153,-0.0163,-0.0165,-0.0173,-0.0188,-0.019,-0.0177,-0.0203,-0.0208,-0.0229,-0.0239,-0.0224,-0.0225,-0.0286,-0.0287,-0.0287,-0.0291,0,0,0,0,0,0,-0.0105,-0.0111,-0.0118,-0.0135,-0.0141,-0.0169,-0.0164,-0.0166,-0.0176,-0.0175,-0.0193,-0.0196,-0.0203,-0.0226,-0.0231,-0.0241,-0.0227,-0.0285,-0.0286,-0.0287,-0.029,-0.0292,-0.0293,0,0,0,0,0,-0.0103,-0.0117,-0.0118,-0.0123,-0.015,-0.0169,-0.0173,-0.018,-0.0176,-0.0184,-0.0194,-0.0195,-0.0237,-0.0228,-0.0233,-0.0244,-0.0284,-0.0286,-0.0287,-0.0289,-0.0291,-0.0293,0,0,0,0,0,0,-0.0101,-0.0119,-0.0121,-0.014,-0.0153,-0.017,-0.018,-0.0182,-0.0197,-0.0196,-0.0205,-0.0209,-0.0231,-0.0239,-0.023,-0.0267,-0.026,-0.0263,-0.026,-0.0262,-0.0264,-0.0262,-0.0228,0,0,0,0,0,-0.0103,-0.0117,-0.0132,-0.0148,-0.0155,-0.0166,-0.0175,-0.018,-0.0194,-0.0199,-0.0211,-0.0225,-0.0242,-0.0252,-0.0268,-0.0291,-0.0296,-0.0301,-0.0303,-0.0304,-0.0307,-0.0322,-0.0325,-0.0292,-0.0292,-0.0292,0,0,-0.0107,-0.0119,-0.0127,-0.0148,-0.0159,-0.0174,-0.0171,-0.0186,-0.0199,-0.0202,-0.0223,-0.0232,-0.0249,-0.0272,-0.0282,-0.028,-0.0317,-0.0306,-0.0307,-0.0309,-0.0324,-0.0327,-0.033,-0.0293,-0.0293,-0.0293,0,0,-0.0122,-0.0132,-0.0147,-0.0158,-0.0174,-0.0182,-0.0186,-0.0203,-0.0209,-0.023,-0.0234,-0.0249,-0.0276,-0.0289,-0.0299,-0.0322,-0.0324,-0.0327,-0.0336,-0.0351,-0.0353,-0.0356,-0.0366,-0.0369,-0.0329,-0.0329,-0.0329,0,-0.0125,-0.0148,-0.0155,-0.0171,-0.0182,-0.0185,-0.0202,-0.0213,-0.0234,-0.0241,-0.0238,-0.0274,-0.0285,-0.0312,-0.0318,-0.0325,-0.0332,-0.0325,-0.0352,-0.0355,-0.0357,-0.0367,-0.0371,-0.0329,-0.0329,-0.0329,-0.0329,0,-0.0152,-0.0167,-0.0178,-0.0198,-0.021,-0.0226,-0.0237,-0.0248,-0.0253,-0.0262,-0.0285,-0.0299,-0.0319,-0.0325,-0.0329,-0.0354,-0.0352,-0.035,-0.0344,-0.0361,-0.037,-0.0374,-0.0329,-0.0329,-0.0329,-0.0329,0,0,-0.0165,-0.0191,-0.0195,-0.0205,-0.0224,-0.0237,-0.0255,-0.0274,-0.0285,-0.0299,-0.0316,-0.034,-0.0339,-0.0351,-0.0357,-0.037,-0.039,-0.0367,-0.0367,-0.0372,-0.042,-0.0423,-0.0427,-0.0391,-0.0392,-0.0392,-0.042,0,-0.0184,-0.0215,-0.0223,-0.025,-0.0266,-0.0271,-0.0287,-0.0302,-0.0311,-0.0327,-0.0337,-0.0355,-0.0352,-0.0359,-0.0372,-0.0384,-0.04,-0.0382,-0.0408,-0.0409,-0.0405,-0.0431,-0.0433,-0.0458,-0.0423,-0.0424,-0.0424,0,-0.0209,-0.0225,-0.0254,-0.0274,-0.0281,-0.0294,-0.0314,-0.0329,-0.0346,-0.0353,-0.0366,-0.0372,-0.0392,-0.0385,-0.0415,-0.0403,-0.0414,-0.0422,-0.0423,-0.0427,-0.0419,-0.0438,-0.0466,-0.0471,-0.043,-0.043,-0.0429,0,-0.0219,-0.0247,-0.0269,-0.0277,-0.03,-0.031,-0.0321,-0.0337,-0.035,-0.0367,-0.0376,-0.0395,-0.0407,-0.0423,-0.0434,-0.0427,-0.0464,-0.0457,-0.0471,-0.0471,-0.0479,-0.0479,-0.0512,-0.0484,-0.0484,-0.0484,-0.0484,0,-0.024,-0.0257,-0.0274,-0.0287,-0.0308,-0.0318,-0.0339,-0.0349,-0.0365,-0.0382,-0.0388,-0.0403,-0.0417,-0.0435,-0.0444,-0.0469,-0.0473,-0.0481,-0.0483,-0.0481,-0.048,-0.0489,-0.0488,-0.0485,-0.0485,-0.0485,-0.0484,0,-0.0254,-0.0265,-0.0289,-0.0309,-0.0315,-0.033,-0.0348,-0.0362,-0.0372,-0.0394,-0.04,-0.0416,-0.0438,-0.0451,-0.0478,-0.0485,-0.0513,-0.0514,-0.0507,-0.0509,-0.0523,-0.0523,-0.0564,-0.0572,-0.0537,-0.0538,-0.0538,0,-0.0266,-0.028,-0.0303,-0.0314,-0.0325,-0.0343,-0.0356,-0.0367,-0.038,-0.0403,-0.0415,-0.0437,-0.0456,-0.0492,-0.0507,-0.0529,-0.0531,-0.0545,-0.0535,-0.0533,-0.0534,-0.0534,-0.0537,-0.0547,-0.0547,-0.0547,-0.0547,0,-0.0289,-0.0294,-0.0312,-0.0332,-0.0348,-0.0364,-0.0381,-0.039,-0.0405,-0.042,-0.0443,-0.0457,-0.0486,-0.051,-0.0533,-0.0546,-0.055,-0.055,-0.0555,-0.0554,-0.055,-0.0555,-0.0514,-0.0549,-0.0549,-0.0549,-0.0549,-0.0549,-0.0304,-0.0317,-0.0336,-0.0356,-0.037,-0.0386,-0.0402,-0.0414,-0.0433,-0.0458,-0.0464,-0.0488,-0.0509,-0.0541,-0.0554,-0.0575,-0.0572,-0.0579,-0.0581,-0.0583,-0.0585,-0.0546,-0.0579,-0.0579,-0.0579,-0.0579,-0.0579,0,-0.0328,-0.034,-0.0359,-0.0383,-0.04,-0.0402,-0.0421,-0.0436,-0.0457,-0.0475,-0.0494,-0.0522,-0.0545,-0.0563,-0.0587,-0.0601,-0.0603,-0.0607,-0.0607,-0.061,-0.0584,-0.0578,-0.0604,-0.0604,-0.0604,-0.0604,-0.0604,-0.0604,-0.0342,-0.0366,-0.0375,-0.0407,-0.042,-0.0444,-0.0455,-0.0471,-0.0486,-0.0517,-0.0536,-0.0548,-0.0567,-0.0593,-0.0615,-0.062,-0.063,-0.0633,-0.0639,-0.0614,-0.0611,-0.0609,-0.0604,-0.0635,-0.0635,-0.0663,-0.0664,-0.0664]},{"header":{"parameterUnit":"m.s-1","parameterCategory":1,"la1":30.2991,"la2":30.254,"lo1":-89.0895,"lo2":-89.0444,"dy":0.0017,"dx":0.0017,"nx":28,"ny":28,"refTime":"2025-06-02T03:00:00:Z","depth":0,"parameterNumber":3,"parameterNumberName":"V-component_of_WINDS"},"data":[0,0,0,0,0,0,0,0,0,0,0,0,0,0,0,0,0,0,0,0,0,0,0,0,0,0,0,0,0,0,0,0,0,0,0,0,0,0,0,0,0,0,0,0,0,0,0,0,0,0,0,0,0,0,0,0,0,0,0.5601,0.5603,0,0.5756,0.5758,0.5759,0.5792,0.579,0.5789,0.5788,0.5946,0.5951,0.5956,0,0,0,0,0,0,0,0,0,0,0,0,0,0.533,0.5335,0.5601,0.5603,0.5605,0.5756,0.5758,0.576,0.5792,0.579,0.5789,0.5788,0.5944,0.595,0.5957,0,0,0,0,0,0,0,0,0,0,0,0,0,0.5462,0.5336,0.5601,0.5639,0.5644,0.5755,0.5758,0.576,0.5792,0.579,0.5789,0.5787,0.5942,0.595,0.5957,0.6041,0,0,0.5982,0.5985,0,0,0,0,0,0,0,0,0.5455,0.5472,0.5631,0.5636,0.5642,0.5753,0.572,0.5855,0.5793,0.5736,0.5788,0.5786,0.5883,0.5896,0.5928,0.6049,0.6055,0.5982,0.5987,0.5991,0.5993,0,0,0,0,0,0,0,0.5446,0.5466,0.5662,0.5634,0.564,0.5647,0.5664,0.5746,0.5817,0.5741,0.5743,0.5761,0.5885,0.5921,0.5932,0.6058,0.5982,0.5989,0.5994,0.5997,0.6252,0.6254,0,0,0,0,0,0,0.543,0.5458,0.5657,0.5667,0.5542,0.5654,0.5673,0.5719,0.5816,0.583,0.5763,0.5762,0.5908,0.5923,0.5938,0.6042,0.5991,0.5998,0.6003,0.625,0.6253,0.6255,0,0,0,0,0,0,0.5424,0.5447,0.5651,0.5563,0.559,0.566,0.5712,0.5723,0.5758,0.5833,0.5846,0.5786,0.5907,0.5927,0.6015,0.6048,0.6002,0.6009,0.6248,0.6251,0.6254,0.6251,0,0,0,0,0,0,0.5416,0.5445,0.5479,0.5564,0.5594,0.5726,0.5714,0.5727,0.5772,0.5773,0.5858,0.587,0.5907,0.6003,0.6023,0.6058,0.6015,0.6246,0.6249,0.6253,0.6248,0.6253,0.6258,0,0,0,0,0,0.5406,0.5472,0.548,0.5504,0.5638,0.5728,0.5746,0.5787,0.5774,0.5808,0.5856,0.5868,0.6041,0.6012,0.6034,0.6072,0.6244,0.6248,0.6253,0.6246,0.6252,0.6258,0,0,0,0,0,0,0.5389,0.5484,0.5494,0.5589,0.565,0.5734,0.5778,0.5793,0.5859,0.5857,0.5905,0.5924,0.6009,0.6049,0.6015,0.6157,0.6141,0.6151,0.6129,0.6135,0.614,0.6129,0.6022,0,0,0,0,0,0.5396,0.5462,0.5541,0.5617,0.5647,0.5707,0.5748,0.5774,0.584,0.5866,0.592,0.5982,0.6051,0.6095,0.6162,0.6253,0.6272,0.629,0.6295,0.6298,0.6306,0.6357,0.6365,0.627,0.627,0.627,0,0,0.5412,0.5472,0.5511,0.5615,0.5666,0.5733,0.5729,0.58,0.585,0.5877,0.5964,0.6005,0.6077,0.6167,0.621,0.6204,0.6336,0.6304,0.6306,0.6313,0.6362,0.6371,0.6379,0.6273,0.6273,0.6272,0,0,0.5475,0.5527,0.5596,0.5646,0.5722,0.5761,0.5777,0.5858,0.5886,0.5974,0.5995,0.6054,0.6171,0.6221,0.6262,0.6341,0.6354,0.6361,0.6386,0.6435,0.6442,0.6449,0.6477,0.6486,0.6368,0.6368,0.6368,0,0.5485,0.5587,0.5629,0.5699,0.5744,0.577,0.584,0.5886,0.598,0.601,0.6002,0.6148,0.6198,0.63,0.6319,0.6351,0.637,0.6353,0.6438,0.6445,0.6452,0.6479,0.6489,0.6369,0.6369,0.6369,0.6369,0,0.5595,0.5666,0.5712,0.5802,0.5851,0.5921,0.5972,0.6017,0.6038,0.6077,0.6164,0.6226,0.6305,0.6331,0.6352,0.6435,0.6429,0.6428,0.6413,0.6461,0.6487,0.6498,0.6369,0.6369,0.6369,0.6369,0,0,0.5655,0.5765,0.5781,0.5822,0.5907,0.5961,0.603,0.6108,0.6145,0.6208,0.6267,0.6364,0.6363,0.641,0.6437,0.6479,0.6536,0.6473,0.6476,0.6483,0.663,0.663,0.6642,0.6544,0.6547,0.6548,0.6624,0,0.5728,0.5854,0.5892,0.5997,0.6062,0.6086,0.6146,0.6204,0.6242,0.6301,0.6342,0.641,0.6404,0.6432,0.6475,0.652,0.6567,0.6515,0.6599,0.6602,0.6582,0.6656,0.6657,0.6726,0.6634,0.6636,0.6638,0,0.5832,0.5897,0.6008,0.6083,0.6111,0.6165,0.6238,0.6294,0.6359,0.6383,0.6434,0.6456,0.6528,0.6507,0.6606,0.657,0.6606,0.6633,0.6637,0.6648,0.6624,0.6669,0.6749,0.6759,0.6654,0.6653,0.6652,0,0.5864,0.5979,0.606,0.6094,0.6183,0.622,0.6258,0.6322,0.6365,0.6428,0.6456,0.6527,0.6565,0.6619,0.6659,0.664,0.6754,0.6737,0.6776,0.6775,0.68,0.6798,0.6888,0.6822,0.6822,0.6821,0.6821,0,0.5944,0.6011,0.6076,0.6126,0.6201,0.6243,0.6316,0.6355,0.6411,0.6468,0.6493,0.6545,0.6595,0.6654,0.6686,0.6762,0.678,0.6801,0.6808,0.6799,0.6797,0.6825,0.6821,0.6824,0.6824,0.6823,0.6822,0,0.5994,0.604,0.613,0.6206,0.6226,0.6278,0.6343,0.6392,0.6429,0.6501,0.652,0.6578,0.6649,0.6694,0.6784,0.6805,0.6888,0.6894,0.6867,0.6871,0.6907,0.6903,0.7019,0.7036,0.6957,0.6958,0.6958,0,0.6042,0.6094,0.6175,0.6215,0.6254,0.6319,0.6363,0.6405,0.6449,0.6526,0.6565,0.6637,0.6697,0.6808,0.6858,0.6926,0.6934,0.6969,0.6945,0.6933,0.6935,0.6932,0.6937,0.6974,0.6975,0.6975,0.6976,0,0.6122,0.6142,0.6205,0.6275,0.6327,0.6384,0.6441,0.6472,0.6524,0.6572,0.6645,0.6691,0.6782,0.6853,0.6925,0.6963,0.6978,0.6983,0.6995,0.6987,0.6969,0.698,0.6879,0.6981,0.698,0.698,0.6979,0.6979,0.6174,0.6221,0.6285,0.6353,0.64,0.6452,0.6501,0.6544,0.6605,0.6683,0.6703,0.6778,0.6839,0.6938,0.6977,0.7036,0.7032,0.705,0.7055,0.7059,0.7059,0.6958,0.7049,0.7049,0.7049,0.7049,0.7049,0,0.6256,0.6298,0.636,0.6439,0.6492,0.65,0.6563,0.6607,0.6673,0.6729,0.6787,0.6869,0.6937,0.6991,0.706,0.7097,0.7105,0.7114,0.7112,0.7121,0.706,0.7042,0.7106,0.7106,0.7106,0.7106,0.7106,0.7106,0.6305,0.6385,0.6411,0.6513,0.6554,0.6629,0.6664,0.6711,0.6756,0.6847,0.6903,0.6938,0.6992,0.7065,0.7128,0.7141,0.7166,0.7174,0.7189,0.7131,0.7125,0.7119,0.7103,0.7178,0.7178,0.7245,0.7246,0.7246]}]]